TimeEDT,TemperatureF,Dew PointF,Humidity,Sea Level PressureIn,VisibilityMPH,Wind Direction,Wind SpeedMPH,Gust SpeedMPH,PrecipitationIn,Events,Conditions,WindDirDegrees,DateUTC
12:53 AM,71.1,66.9,87,29.49,10.0,WNW,23.0,31.1,0.00,,Overcast,300,2012-10-27 04:53:00
1:53 AM,71.1,66.9,87,29.48,10.0,WNW,21.9,38.0,0.00,Rain,Light Rain,300,2012-10-27 05:53:00
2:53 AM,72.0,66.0,81,29.47,10.0,WNW,26.5,32.2,0.00,,Mostly Cloudy,290,2012-10-27 06:53:00
3:53 AM,72.0,64.9,78,29.44,10.0,WNW,23.0,35.7,N/A,,Mostly Cloudy,290,2012-10-27 07:53:00
4:53 AM,71.1,64.0,78,29.45,10.0,WNW,21.9,32.2,N/A,,Mostly Cloudy,290,2012-10-27 08:53:00
5:53 AM,70.0,63.0,78,29.46,10.0,West,21.9,28.8,N/A,,Mostly Cloudy,280,2012-10-27 09:53:00
6:28 AM,69.8,62.6,78,29.47,10.0,WNW,19.6,27.6,N/A,,Partly Cloudy,290,2012-10-27 10:28:00
6:53 AM,70.0,63.0,78,29.48,10.0,WNW,16.1,27.6,N/A,,Partly Cloudy,290,2012-10-27 10:53:00
7:53 AM,70.0,63.0,78,29.50,10.0,West,23.0,27.6,N/A,,Scattered Clouds,280,2012-10-27 11:53:00
8:53 AM,71.1,63.0,75,29.53,10.0,WNW,23.0,34.5,N/A,,Scattered Clouds,290,2012-10-27 12:53:00
9:53 AM,73.0,63.0,71,29.55,10.0,WNW,20.7,29.9,N/A,,Scattered Clouds,300,2012-10-27 13:53:00
10:53 AM,75.9,62.1,62,29.56,10.0,WNW,27.6,38.0,N/A,,Mostly Cloudy,300,2012-10-27 14:53:00
11:53 AM,77.0,62.1,60,29.57,10.0,WNW,24.2,36.8,N/A,,Mostly Cloudy,300,2012-10-27 15:53:00
12:53 PM,79.0,63.0,58,29.55,10.0,WNW,19.6,33.4,N/A,,Mostly Cloudy,300,2012-10-27 16:53:00
1:53 PM,80.1,62.1,54,29.54,10.0,NW,25.3,34.5,N/A,,Mostly Cloudy,310,2012-10-27 17:53:00
2:53 PM,77.0,61.0,58,29.55,10.0,WNW,25.3,32.2,N/A,,Mostly Cloudy,300,2012-10-27 18:53:00
3:53 PM,75.9,61.0,60,29.55,10.0,NW,20.7,31.1,N/A,,Mostly Cloudy,310,2012-10-27 19:53:00
4:53 PM,75.0,61.0,62,29.55,10.0,WNW,21.9,28.8,N/A,,Mostly Cloudy,290,2012-10-27 20:53:00
5:53 PM,75.0,62.1,64,29.55,10.0,WNW,17.3,-,N/A,,Mostly Cloudy,290,2012-10-27 21:53:00
6:53 PM,73.9,61.0,64,29.57,10.0,WNW,13.8,21.9,N/A,,Mostly Cloudy,300,2012-10-27 22:53:00
7:53 PM,73.0,62.1,68,29.60,10.0,WNW,12.7,-,N/A,,Mostly Cloudy,300,2012-10-27 23:53:00
8:53 PM,72.0,61.0,68,29.63,10.0,WNW,15.0,23.0,N/A,,Scattered Clouds,300,2012-10-28 00:53:00
9:53 PM,71.1,62.1,73,29.65,10.0,WNW,11.5,20.7,N/A,,Scattered Clouds,290,2012-10-28 01:53:00
10:53 PM,70.0,62.1,76,29.67,10.0,West,12.7,-,N/A,,Scattered Clouds,280,2012-10-28 02:53:00
11:53 PM,69.1,63.0,81,29.68,10.0,West,12.7,-,N/A,,Partly Cloudy,280,2012-10-28 03:53:00